Date,TemperatureHighF,TemperatureAvgF,TemperatureLowF,DewpointHighF,DewpointAvgF,DewpointLowF,HumidityHigh,HumidityAvg,HumidityLow,PressureMaxIn,PressureMinIn,WindSpeedMaxMPH,WindSpeedAvgMPH,GustSpeedMaxMPH,PrecipitationSumIn
2013-9-1,91,77,68,71,68,65,97,78,46,29.82,29.72,14,2,14,0.00
2013-9-2,88,75,69,72,70,67,100,87,50,29.77,29.72,10,1,10,0.00
2013-9-3,84,75,64,69,60,54,85,62,36,29.96,29.70,6,1,16,0.00
2013-9-4,83,69,56,61,56,46,97,65,31,30.07,29.96,5,1,12,0.00
2013-9-5,84,70,58,62,56,52,95,64,37,30.11,30.00,6,2,19,0.00
2013-9-6,75,63,50,52,48,42,93,62,31,30.24,30.10,4,1,10,0.00
2013-9-7,82,66,50,60,54,48,98,69,34,30.12,29.91,5,1,10,0.00
2013-9-8,88,74,62,66,61,55,85,67,45,30.00,29.84,11,1,11,0.00
2013-9-9,70,65,62,62,54,50,76,68,56,30.17,30.00,7,1,7,0.00
2013-9-10,93,79,66,72,68,64,94,72,42,30.13,30.03,7,2,13,0.00
2013-9-11,93,82,73,72,70,68,92,69,45,30.11,29.96,6,2,14,0.00
2013-9-12,92,78,72,71,67,63,88,72,46,29.96,29.70,10,2,15,0.02
2013-9-13,76,68,57,63,54,47,85,64,38,29.94,29.68,17,2,17,0.00
2013-9-14,67,60,49,47,44,40,87,57,42,30.15,29.94,11,1,11,0.00
2013-9-15,77,61,46,57,51,44,96,72,42,30.21,30.04,12,2,12,0.00
2013-9-16,69,63,57,60,57,53,98,80,59,30.21,29.99,12,1,12,0.12
2013-9-17,66,57,46,54,43,32,91,62,30,30.41,30.21,10,1,11,0.00
2013-9-18,71,56,39,50,45,38,99,71,41,30.31,30.15,11,1,11,0.00
2013-9-19,76,61,48,58,54,48,100,78,51,30.16,30.03,11,1,11,0.00
2013-9-20,80,72,57,63,61,56,100,72,54,30.04,29.89,15,2,15,0.00
2013-9-21,71,65,60,66,63,60,100,93,77,29.89,29.65,18,2,18,0.77
2013-9-22,70,60,52,60,53,45,100,78,47,29.95,29.71,10,1,10,0.00
2013-9-23,64,56,48,48,45,41,93,70,49,30.09,29.94,10,1,10,0.00
2013-9-24,72,55,40,52,47,40,100,76,45,30.11,29.93,7,0,7,0.00
2013-9-25,72,57,44,53,48,44,100,76,40,29.98,29.86,9,1,9,0.00
2013-9-26,75,60,48,54,49,37,99,71,28,30.04,29.90,8,0,8,0.00
2013-9-27,72,58,46,56,51,46,99,80,50,30.20,30.04,7,0,7,0.00
2013-9-28,66,58,49,56,52,49,100,83,57,30.29,30.19,7,0,7,0.00
2013-9-29,70,58,44,56,49,44,100,77,43,30.19,30.03,9,1,9,0.00
2013-9-30,76,60,46,55,51,46,100,75,42,30.07,29.94,5,1,7,0.00